Location: Newark
(43.6583°N, 1.6617°E)
Time: 09:56:53
(UTC+00:00)

Vanguard 1 Rocket - Pass Details

Date: 21 August 2019
Orbit: 652 x 4225 km, 34.3° (Epoch: 15 September)

Event Time Altitude Azimuth Distance (km) Brightness Sun altitude
Rises 01:36:56 0° 213° (SSW) 2,965 - -29.6°
Reaches altitude 10° 01:40:02 10° 189° (S) 2,059 - -29.3°
Maximum altitude 01:42:37 15° 152° (SSE) 1,836 - -29.1°
Exits shadow 01:45:16 11° 119° (ESE) 2,288 9.4 -28.9°
Drops below altitude 10° 01:45:31 10° 117° (ESE) 2,355 9.5 -28.8°
Sets 01:49:31 0° 95° (E) 3,694 10.9 -28.5°
